Waarnemingen

Advertentie
Mijn weer
Beauvechain, België (6458): temperatuur & dauwpunt: 15.06.2018 02:00:00 - 21.06.2018 02:00:00 (CEST)Beauvechain, België (6458): windsnelheid & windstoten: 15.06.2018 02:00:00 - 21.06.2018 02:00:00 (CEST)Beauvechain, België (6458): windrichting: 15.06.2018 02:00:00 - 21.06.2018 02:00:00 (CEST)Beauvechain, België (6458): luchtdruk: 15.06.2018 02:00:00 - 21.06.2018 02:00:00 (CEST)Beauvechain, België (6458): zicht: 15.06.2018 02:00:00 - 21.06.2018 02:00:00 (CEST)
Datum & Tijd tt [°C] td [°C] ff [km/u] ff [kn] fx [km/u] fx [kn] dd ppp [hPa] vv [km]
21.06.2018 02:00:00 16,8 13,4 11 6 - - ZW 1018,0 20
21.06.2018 01:00:00 17,7 14,2 7 4 14 8 W 1018,6 20
21.06.2018 00:00:00 18,6 14,1 11 6 14 8 ZW 1018,5 20
20.06.2018 23:00:00 19,7 14,2 7 4 - - ZW 1018,8 20
20.06.2018 22:00:00 20,7 14,1 7 4 18 10 WZW 1018,7 20
20.06.2018 21:00:00 22,3 14,5 11 6 22 12 W 1018,6 20
20.06.2018 20:00:00 24,4 13,8 11 6 - - W 1018,7 20
20.06.2018 19:00:00 25,6 13,4 14 8 25 14 W 1019,0 20
20.06.2018 18:00:00 25,0 14,8 14 8 25 14 W 1019,2 25
20.06.2018 17:00:00 26,3 14,6 14 8 - - WZW 1019,7 25
20.06.2018 16:00:00 25,6 13,9 14 8 22 12 W 1020,0 25
20.06.2018 15:00:00 25,4 14,6 11 6 22 12 W 1020,6 25
20.06.2018 14:00:00 24,2 15,1 11 6 - - ZW 1021,2 25
20.06.2018 13:00:00 23,2 15,7 11 6 25 14 ZW 1021,7 25
20.06.2018 12:00:00 21,7 15,2 11 6 22 12 WZW 1022,2 20
20.06.2018 11:00:00 20,5 15,2 11 6 - - ZW 1022,7 20
20.06.2018 10:00:00 18,7 14,5 18 10 25 14 WZW 1022,8 20
20.06.2018 09:00:00 18,0 14,1 14 8 25 14 ZW 1022,8 20
20.06.2018 08:00:00 17,5 14,1 14 8 - - ZW 1022,8 15
20.06.2018 07:00:00 17,1 14,0 11 6 18 10 ZW 1023,1 15
20.06.2018 06:00:00 16,7 13,8 7 4 18 10 ZW 1023,1 15
20.06.2018 05:00:00 16,8 13,7 11 6 - - ZW 1023,3 20
20.06.2018 04:00:00 17,1 13,7 7 4 18 10 ZW 1023,7 20
20.06.2018 03:00:00 17,0 13,9 11 6 18 10 WZW 1024,0 20
20.06.2018 02:00:00 17,2 14,6 7 4 - - WZW 1024,4 20
20.06.2018 01:00:00 17,5 15,4 4 2 7 4 N 1024,5 20
20.06.2018 00:00:00 17,7 15,5 4 2 7 4 N 1024,7 20
19.06.2018 23:00:00 18,0 15,4 4 2 - - N 1024,7 20
19.06.2018 22:00:00 18,2 15,5 7 4 14 8 W 1024,5 20
19.06.2018 21:00:00 19,1 15,1 4 2 7 4 N 1024,2 20
19.06.2018 20:00:00 19,6 15,5 4 2 - - N 1024,2 20
19.06.2018 19:00:00 20,0 15,5 7 4 18 10 WZW 1024,5 20
19.06.2018 18:00:00 19,7 15,4 11 6 18 10 WZW 1024,7 15
19.06.2018 17:00:00 19,3 15,0 14 8 - - WZW 1025,0 15
19.06.2018 16:00:00 19,2 15,3 11 6 18 10 WZW 1025,2 15
19.06.2018 15:00:00 19,0 15,0 11 6 - - ZW - 10
19.06.2018 14:00:00 18,8 15,1 11 6 - - ZW 1025,2 15
19.06.2018 13:00:00 - - - - - - - - -
19.06.2018 12:00:00 17,5 15,4 11 6 22 12 W 1024,9 7
19.06.2018 11:00:00 17,7 14,9 11 6 - - WZW 1024,7 20
19.06.2018 10:00:00 17,5 14,8 14 8 25 14 WZW 1024,5 20
19.06.2018 09:00:00 16,7 14,6 14 8 22 12 WZW 1024,2 20
19.06.2018 08:00:00 16,2 14,3 14 8 - - WZW 1023,8 20
19.06.2018 07:00:00 16,0 14,0 14 8 25 14 ZW 1023,5 20
19.06.2018 06:00:00 15,1 13,6 14 8 22 12 ZW 1023,6 20
19.06.2018 05:00:00 14,3 12,9 14 8 - - ZW 1023,2 20
19.06.2018 04:00:00 13,1 12,0 14 8 25 14 ZW 1022,8 19
19.06.2018 03:00:00 13,5 11,4 14 8 25 14 ZW 1022,7 18
19.06.2018 02:00:00 14,1 10,9 18 10 - - ZW 1022,5 20
19.06.2018 01:00:00 14,8 10,6 18 10 25 14 WZW 1022,6 20
19.06.2018 00:00:00 15,6 11,5 14 8 25 14 WZW 1022,7 20
18.06.2018 23:00:00 15,5 11,5 7 4 - - ZW 1022,5 20
18.06.2018 22:00:00 16,7 12,0 11 6 29 16 WZW 1021,8 20
18.06.2018 21:00:00 18,2 12,6 18 10 29 16 WZW 1021,3 20
18.06.2018 20:00:00 18,6 12,5 22 12 - - WZW 1021,2 20
18.06.2018 19:00:00 19,2 12,5 22 12 36 19 WZW 1021,0 20
18.06.2018 18:00:00 19,2 12,7 18 10 36 19 WZW 1021,2 20
18.06.2018 17:00:00 19,5 13,4 25 14 - - WZW 1021,2 20
18.06.2018 16:00:00 19,2 13,9 22 12 43 23 WZW 1021,2 15
18.06.2018 15:00:00 19,6 15,1 22 12 40 21 W 1021,2 15
18.06.2018 14:00:00 19,3 15,4 22 12 - - WZW 1021,2 8
18.06.2018 13:00:00 18,6 14,5 22 12 32 18 ZW 1021,2 15
18.06.2018 12:00:00 17,1 14,8 25 14 36 19 ZW 1021,2 8
18.06.2018 11:00:00 17,7 14,1 22 12 - - ZW 1021,0 20
18.06.2018 10:00:00 17,5 13,4 22 12 36 19 ZW 1020,6 20
18.06.2018 09:00:00 17,4 13,3 22 12 36 19 ZW 1020,3 20
18.06.2018 08:00:00 16,7 12,1 14 8 - - ZW 1020,2 20
18.06.2018 07:00:00 15,6 11,4 14 8 22 12 ZW 1020,2 20
18.06.2018 06:00:00 15,0 11,1 11 6 18 10 ZZW 1020,2 20
18.06.2018 05:00:00 15,0 11,0 11 6 - - ZZW 1019,8 20
18.06.2018 04:00:00 14,6 11,1 7 4 11 6 ZZW 1020,1 20
18.06.2018 03:00:00 15,0 11,1 7 4 11 6 Z 1020,1 20
18.06.2018 02:00:00 15,3 10,8 4 2 - - N 1020,3 20
18.06.2018 01:00:00 15,3 10,2 7 4 11 6 ZZW 1020,5 20
18.06.2018 00:00:00 15,1 9,7 7 4 11 6 ZZW 1020,7 20
17.06.2018 23:00:00 15,3 9,2 4 2 - - N 1020,7 20
17.06.2018 22:00:00 15,6 8,9 7 4 22 12 N 1020,5 20
17.06.2018 21:00:00 16,1 8,7 14 8 36 19 W 1020,1 20
17.06.2018 20:00:00 17,2 7,8 25 14 - - WZW 1019,6 20
17.06.2018 19:00:00 17,7 9,3 18 10 29 16 WZW 1019,5 20
17.06.2018 18:00:00 18,3 9,1 18 10 29 16 WZW 1019,2 20
17.06.2018 17:00:00 17,3 9,3 18 10 - - WZW 1019,3 20
17.06.2018 16:00:00 17,6 10,7 18 10 32 18 ZW 1019,5 20
17.06.2018 15:00:00 15,7 9,4 18 10 32 18 WZW 1019,6 20
17.06.2018 14:00:00 15,6 8,8 18 10 - - WZW 1019,2 20
17.06.2018 13:00:00 15,6 8,6 14 8 32 18 WZW 1019,0 20
17.06.2018 12:00:00 15,1 8,3 18 10 32 18 WZW 1018,7 20
17.06.2018 11:00:00 15,8 9,0 25 14 - - WZW 1018,7 20
17.06.2018 10:00:00 15,3 9,0 22 12 32 18 ZW 1018,5 20
17.06.2018 09:00:00 14,6 9,7 18 10 29 16 WZW 1018,1 20
17.06.2018 08:00:00 14,1 9,4 18 10 - - ZW 1017,6 20
17.06.2018 07:00:00 13,6 10,1 14 8 22 12 WZW 1017,5 20
17.06.2018 06:00:00 13,4 10,1 11 6 22 12 ZW 1017,5 20
17.06.2018 05:00:00 13,5 9,8 11 6 - - ZW 1017,2 20
17.06.2018 04:00:00 13,4 9,4 7 4 18 10 ZZW 1017,0 20
17.06.2018 03:00:00 13,9 9,4 11 6 14 8 ZW 1017,1 20
17.06.2018 02:00:00 14,3 8,9 11 6 - - ZZW 1016,7 20
17.06.2018 01:00:00 13,8 8,8 7 4 14 8 ZW 1017,1 20
17.06.2018 00:00:00 14,3 8,6 7 4 14 8 ZW 1017,1 20
16.06.2018 23:00:00 14,9 8,5 7 4 - - ZW 1016,8 20
16.06.2018 22:00:00 15,8 9,2 11 6 22 12 WZW 1016,6 20
16.06.2018 21:00:00 17,6 8,9 11 6 25 14 W 1016,0 20
16.06.2018 20:00:00 18,6 10,6 14 8 - - W 1015,7 20
16.06.2018 19:00:00 19,6 9,7 18 10 40 21 WZW 1015,5 20
16.06.2018 18:00:00 19,5 10,7 22 12 29 16 ZW 1015,2 20
16.06.2018 17:00:00 19,6 11,1 18 10 - - WZW 1015,2 20
16.06.2018 16:00:00 20,3 10,9 18 10 25 14 WZW 1015,0 20
16.06.2018 15:00:00 21,3 10,2 14 8 25 14 WZW 1015,0 20
16.06.2018 14:00:00 20,5 9,5 11 6 - - WZW 1015,2 20
16.06.2018 13:00:00 20,5 8,9 11 6 22 12 ZW 1015,7 20
16.06.2018 12:00:00 18,7 10,4 11 6 22 12 W 1016,2 17
16.06.2018 11:00:00 18,1 11,6 11 6 - - WZW 1016,2 20
16.06.2018 10:00:00 18,1 11,5 7 4 14 8 ZZW 1015,8 20
16.06.2018 09:00:00 14,6 10,0 7 4 14 8 ZW 1016,5 20
16.06.2018 08:00:00 13,7 10,0 11 6 - - ZW 1016,5 15
16.06.2018 07:00:00 12,6 10,2 7 4 11 6 ZW 1016,3 14
16.06.2018 06:00:00 12,3 10,6 4 2 11 6 N 1016,2 9
16.06.2018 05:00:00 12,8 10,6 7 4 - - ZW 1016,3 12
16.06.2018 04:00:00 13,6 11,0 11 6 11 6 ZW 1016,3 12
16.06.2018 03:00:00 14,3 10,6 7 4 11 6 ZW 1016,7 18
16.06.2018 02:00:00 14,2 11,4 7 4 - - WZW 1016,7 14
16.06.2018 01:00:00 15,1 11,7 4 2 7 4 N 1016,5 14
16.06.2018 00:00:00 15,4 11,8 4 2 11 6 N 1016,6 13
15.06.2018 23:00:00 15,6 12,0 7 4 - - WNW 1016,6 10
15.06.2018 22:00:00 19,0 10,5 4 2 14 8 N 1016,0 20
15.06.2018 21:00:00 20,7 10,9 11 6 14 8 WZW 1016,0 20
15.06.2018 20:00:00 22,0 11,3 7 4 - - ZZW 1015,8 20
15.06.2018 19:00:00 22,5 10,6 7 4 14 8 ZW 1016,0 19
15.06.2018 18:00:00 21,6 9,8 7 4 11 6 WZW 1016,0 20
15.06.2018 17:00:00 22,3 10,7 4 2 - - N 1016,1 20
15.06.2018 16:00:00 22,6 10,3 7 4 14 8 N 1016,6 20
15.06.2018 15:00:00 21,9 11,3 11 6 18 10 ZW 1016,7 20
15.06.2018 14:00:00 22,0 10,6 4 2 - - N 1016,6 20
15.06.2018 13:00:00 21,1 11,7 4 2 14 8 N 1017,1 20
15.06.2018 12:00:00 20,1 11,9 4 2 14 8 N 1017,1 20
15.06.2018 11:00:00 18,1 12,7 7 4 - - WZW 1017,2 20
15.06.2018 10:00:00 - - - - - - - - -
15.06.2018 09:00:00 15,2 12,0 4 2 11 6 N 1017,2 20
15.06.2018 08:00:00 13,9 11,9 7 4 - - WZW 1017,2 15
15.06.2018 07:00:00 12,5 11,1 4 2 7 4 N 1016,8 12
15.06.2018 06:00:00 12,0 10,7 7 4 11 6 N 1016,7 15
15.06.2018 05:00:00 12,6 10,9 4 2 - - N 1016,5 17
15.06.2018 04:00:00 12,3 11,1 11 6 11 6 ZZW 1016,6 12
15.06.2018 03:00:00 13,3 12,5 7 4 11 6 ZZW 1016,7 7
15.06.2018 02:00:00 13,8 13,3 4 2 - - N 1016,8 4,4

tt = temperatuur
td = dauwpunt
ff = windsnelheid
fx = windstoten
dd = windrichting
ppp = luchtdruk
vv = zicht

Weerstations in de omgeving